When you browse on this site, cookies collect data to enhance your experience and personalize the content and advertising you see.
Visit our Privacy Policy to learn more. By continuing to use the site, you agree to this use of cookies and data.
  • In Czech Republic
  • List of Countries
  • For 7 days
  • Water Temperature
  • Satellite Maps
  • Weather Map
  • Weather Widgets
  • user-avatar
    Login

    Hourly Weather Taraz

    Today, 16 December, Sunday

    Time Temperature Precipitation Wind Pressure Humidity
    00:00 +7°C° 0 mm 2 mps 709 mmHg 43%
    01:00 +7°C° 0 mm 2 mps 710 mmHg 42%
    02:00 +7°C° 0 mm 3 mps 710 mmHg 42%
    03:00 +6°C° 0 mm 4 mps 711 mmHg 45%
    04:00 +5°C° 0 mm 6 mps 711 mmHg 49%
    05:00 +5°C° 0 mm 8 mps 712 mmHg 52%
    06:00 +3°C° 0 mm 9 mps 712 mmHg 55%
    07:00 +3°C° 0 mm 9 mps 713 mmHg 58%
    08:00 +3°C° 0 mm 10 mps 714 mmHg 60%
    09:00 +3°C° 0 mm 10 mps 715 mmHg 57%
    10:00 +5°C° 0 mm 10 mps 715 mmHg 54%
    11:00 +5°C° 0 mm 10 mps 716 mmHg 48%
    12:00 +5°C° 0 mm 10 mps 716 mmHg 49%
    13:00 +5°C° 0 mm 9 mps 717 mmHg 49%
    14:00 +5°C° 0 mm 9 mps 717 mmHg 50%
    15:00 +4°C° 0 mm 7 mps 718 mmHg 56%
    16:00 +2°C° 0 mm 5 mps 718 mmHg 61%
    17:00 +2°C° 0 mm 3 mps 718 mmHg 68%
    18:00 +2°C° 0 mm 3 mps 718 mmHg 70%
    19:00 +2°C° 0 mm 2 mps 718 mmHg 72%
    20:00 +2°C° 0 mm 1 mps 718 mmHg 74%
    21:00 +2°C° 0 mm 1 mps 718 mmHg 75%
    22:00 +1°C° 0 mm 2 mps 717 mmHg 75%
    23:00 +1°C° 0 mm 2 mps 717 mmHg 76%

    Tomorrow, 17 December, Monday

    Time Temperature Precipitation Wind Pressure Humidity
    00:00 +1°C° 0 mm 2 mps 716 mmHg 75%
    01:00 +1°C° 0 mm 2 mps 716 mmHg 75%
    02:00 +1°C° 0 mm 2 mps 715 mmHg 75%
    03:00 +1°C° 0 mm 2 mps 715 mmHg 74%
    04:00 +1°C° 0 mm 2 mps 714 mmHg 74%
    05:00 +1°C° 0 mm 2 mps 714 mmHg 74%
    06:00 +1°C° 0 mm 2 mps 714 mmHg 73%
    07:00 +1°C° 0 mm 2 mps 714 mmHg 73%
    08:00 +3°C° 0 mm 1 mps 713 mmHg 72%
    09:00 +4°C° 0 mm 1 mps 713 mmHg 68%
    10:00 +4°C° 0 mm 1 mps 713 mmHg 64%
    11:00 +5°C° 0 mm 1 mps 713 mmHg 60%
    12:00 +6°C° 0 mm 1 mps 713 mmHg 57%
    13:00 +7°C° 0 mm 1 mps 712 mmHg 55%
    14:00 +8°C° 0 mm 1 mps 712 mmHg 52%
    15:00 +7°C° 0 mm 1 mps 712 mmHg 54%
    16:00 +6°C° 0 mm 2 mps 711 mmHg 56%
    17:00 +5°C° 0 mm 2 mps 711 mmHg 58%
    18:00 +6°C° 0 mm 2 mps 711 mmHg 57%
    19:00 +6°C° 0 mm 2 mps 711 mmHg 56%
    20:00 +6°C° 0 mm 2 mps 711 mmHg 55%
    21:00 +6°C° 0.1 mm 2 mps 711 mmHg 55%
    22:00 +6°C° 0.1 mm 2 mps 711 mmHg 55%
    23:00 +6°C° 0.1 mm 2 mps 710 mmHg 56%

    Day after tomorrow, 18 December, Tuesday

    Time Temperature Precipitation Wind Pressure Humidity
    00:00 +6°C° 0.3 mm 2 mps 710 mmHg 59%
    01:00 +6°C° 0.3 mm 2 mps 710 mmHg 62%
    02:00 +5°C° 0.3 mm 2 mps 709 mmHg 65%
    03:00 +5°C° 0.7 mm 2 mps 709 mmHg 69%
    04:00 +5°C° 0.7 mm 2 mps 709 mmHg 73%
    05:00 +5°C° 0.7 mm 1 mps 709 mmHg 76%
    06:00 +4°C° 0.7 mm 2 mps 710 mmHg 78%
    07:00 +2°C° 0.7 mm 3 mps 710 mmHg 80%
    08:00 +1°C° 0.7 mm 4 mps 711 mmHg 81%
    09:00 +1°C° 0.2 mm 5 mps 711 mmHg 76%
    10:00 +1°C° 0.2 mm 6 mps 711 mmHg 72%
    11:00 0°C° 0.2 mm 7 mps 712 mmHg 67%
    12:00 +2°C° 0 mm 7 mps 712 mmHg 64%
    13:00 +2°C° 0 mm 6 mps 712 mmHg 61%
    14:00 +3°C° 0 mm 6 mps 712 mmHg 58%
    15:00 +2°C° 0 mm 5 mps 712 mmHg 62%
    16:00 +1°C° 0 mm 3 mps 712 mmHg 66%
    17:00 +1°C° 0 mm 2 mps 712 mmHg 70%
    18:00 +2°C° 0 mm 1 mps 712 mmHg 70%
    19:00 +2°C° 0 mm 1 mps 712 mmHg 70%
    20:00 +1°C° 0 mm 1 mps 712 mmHg 71%
    21:00 +1°C° 0 mm 1 mps 711 mmHg 71%
    22:00 +1°C° 0 mm 1 mps 711 mmHg 72%
    23:00 +1°C° 0 mm 1 mps 711 mmHg 73%

    19 December, Wednesday

    Time Temperature Precipitation Wind Pressure Humidity
    00:00 +1°C° 0 mm 1 mps 711 mmHg 74%
    01:00 +1°C° 0 mm 1 mps 711 mmHg 76%
    02:00 +1°C° 0 mm 1 mps 710 mmHg 77%
    03:00 0°C° 0 mm 1 mps 710 mmHg 79%
    04:00 0°C° 0 mm 1 mps 710 mmHg 81%
    05:00 0°C° 0 mm 1 mps 710 mmHg 82%
    06:00 0°C° 0.1 mm 1 mps 710 mmHg 83%
    07:00 0°C° 0.1 mm 1 mps 711 mmHg 83%
    08:00 0°C° 0.1 mm 1 mps 711 mmHg 84%
    09:00 -1°C° 0.1 mm 2 mps 711 mmHg 82%
    10:00 -1°C° 0.1 mm 2 mps 711 mmHg 81%
    11:00 -1°C° 0.1 mm 2 mps 712 mmHg 79%
    12:00 -1°C° 0.2 mm 2 mps 712 mmHg 80%
    13:00 -1°C° 0.2 mm 2 mps 712 mmHg 80%
    14:00 -1°C° 0.2 mm 2 mps 711 mmHg 80%
    15:00 -1°C° 0.3 mm 2 mps 712 mmHg 82%
    16:00 -1°C° 0.3 mm 2 mps 712 mmHg 84%
    17:00 +1°C° 0.3 mm 1 mps 713 mmHg 86%
    18:00 0°C° 0.2 mm 1 mps 713 mmHg 86%
    19:00 0°C° 0.2 mm 1 mps 713 mmHg 86%
    20:00 0°C° 0.2 mm 1 mps 714 mmHg 86%
    21:00 0°C° 0.2 mm 1 mps 714 mmHg 86%
    22:00 0°C° 0.2 mm 1 mps 714 mmHg 86%
    23:00 0°C° 0.2 mm 1 mps 714 mmHg 86%

    20 December, Thursday

    Time Temperature Precipitation Wind Pressure Humidity
    00:00 0°C° 0.2 mm 1 mps 715 mmHg 86%
    01:00 0°C° 0.2 mm 1 mps 715 mmHg 86%
    02:00 0°C° 0.2 mm 1 mps 715 mmHg 87%
    03:00 0°C° 0.2 mm 1 mps 715 mmHg 87%
    04:00 0°C° 0.2 mm 1 mps 716 mmHg 87%
    05:00 0°C° 0.2 mm 1 mps 716 mmHg 87%
    06:00 0°C° 0.1 mm 1 mps 716 mmHg 87%
    07:00 0°C° 0.1 mm 1 mps 717 mmHg 87%
    08:00 0°C° 0.1 mm 1 mps 717 mmHg 87%
    09:00 0°C° 0 mm 1 mps 717 mmHg 84%
    10:00 -1°C° 0 mm 2 mps 717 mmHg 82%
    11:00 -1°C° 0 mm 2 mps 717 mmHg 79%
    12:00 +1°C° 0 mm 2 mps 717 mmHg 79%
    13:00 +1°C° 0 mm 2 mps 717 mmHg 79%
    14:00 +1°C° 0 mm 2 mps 717 mmHg 79%
    15:00 -1°C° 0 mm 2 mps 716 mmHg 80%
    16:00 -1°C° 0 mm 2 mps 716 mmHg 82%
    17:00 -2°C° 0 mm 2 mps 716 mmHg 84%
    18:00 -2°C° 0 mm 2 mps 716 mmHg 83%
    19:00 -3°C° 0 mm 2 mps 716 mmHg 82%
    20:00 -3°C° 0 mm 2 mps 716 mmHg 81%
    21:00 -3°C° 0 mm 2 mps 716 mmHg 80%
    22:00 -3°C° 0 mm 2 mps 715 mmHg 79%
    23:00 -3°C° 0 mm 2 mps 715 mmHg 79%

    21 December, Friday

    Time Temperature Precipitation Wind Pressure Humidity
    00:00 -3°C° 0 mm 2 mps 714 mmHg 78%
    01:00 -3°C° 0 mm 2 mps 714 mmHg 78%
    02:00 -3°C° 0 mm 2 mps 714 mmHg 77%
    03:00 -3°C° 0 mm 2 mps 713 mmHg 76%
    04:00 -3°C° 0 mm 2 mps 713 mmHg 75%
    05:00 -3°C° 0 mm 2 mps 712 mmHg 75%
    06:00 -3°C° 0 mm 2 mps 712 mmHg 74%
    07:00 -3°C° 0 mm 2 mps 712 mmHg 73%
    08:00 -3°C° 0 mm 2 mps 712 mmHg 72%
    09:00 -2°C° 0 mm 2 mps 711 mmHg 71%
    10:00 +1°C° 0 mm 1 mps 711 mmHg 71%
    11:00 +3°C° 0 mm 1 mps 711 mmHg 70%
    12:00 +3°C° 0 mm 1 mps 710 mmHg 70%
    13:00 +3°C° 0 mm 1 mps 709 mmHg 71%
    14:00 +4°C° 0 mm 1 mps 709 mmHg 71%
    15:00 +3°C° 0 mm 1 mps 709 mmHg 72%
    16:00 +2°C° 0 mm 1 mps 708 mmHg 73%
    17:00 +1°C° 0 mm 1 mps 708 mmHg 74%
    18:00 +1°C° 0 mm 1 mps 708 mmHg 73%
    19:00 +1°C° 0 mm 1 mps 708 mmHg 71%
    20:00 +1°C° 0 mm 1 mps 708 mmHg 70%
    21:00 +2°C° 0 mm 1 mps 708 mmHg 69%
    22:00 +2°C° 0 mm 1 mps 708 mmHg 68%
    23:00 +2°C° 0 mm 1 mps 708 mmHg 68%
    Show more